| time (UTC) | temp F | wind direction | speed knots | gust knots | rain 1hr in | rain 24hr in | rain mn in | humidity % | barometer mb |
| 20260504213006 | 58 | 331 | 1.7 | 3.5 | 0.20 | 0.45 | 0.45 | 99 | 1014.7 |
| 20260504211505 | 58 | 308 | 0.9 | 1.7 | 0.12 | 0.37 | 0.37 | 99 | 1015.2 |
| 20260504204504 | 58 | 270 | 0.0 | 1.7 | 0.00 | 0.25 | 0.25 | 99 | 1014.6 |
| 20260504203004 | 58 | 153 | 0.9 | 1.7 | 0.00 | 0.25 | 0.25 | 99 | 1014.4 |
| 20260504201504 | 58 | 69 | 1.7 | 3.5 | 0.00 | 0.25 | 0.25 | 99 | 1014.2 |
| 20260504200005 | 58 | 65 | 0.9 | 1.7 | 0.00 | 0.25 | 0.25 | 99 | 1014.0 |
| 20260504193004 | 59 | 303 | 0.0 | 1.7 | 0.00 | 0.25 | 0.25 | 99 | 1014.0 |
| 20260504191505 | 59 | 225 | 0.0 | 1.7 | 0.00 | 0.25 | 0.25 | 99 | 1013.6 |
| 20260504184504 | 59 | 326 | 0.9 | 1.7 | 0.00 | 0.25 | 0.25 | 99 | 1013.4 |
| 20260504183005 | 60 | 0 | 0.0 | 0.0 | 0.00 | 0.25 | 0.25 | 99 | 1013.3 |
| 20260504181504 | 60 | 77 | 0.0 | 1.7 | 0.00 | 0.25 | 0.25 | 99 | 1013.4 |
| 20260504180005 | 60 | 248 | 0.0 | 1.7 | 0.00 | 0.25 | 0.25 | 99 | 1013.5 |
| 20260504173005 | 60 | 284 | 0.9 | 1.7 | 0.00 | 0.25 | 0.25 | 99 | 1013.4 |
| 20260504171505 | 60 | 112 | 0.0 | 1.7 | 0.00 | 0.25 | 0.25 | 99 | 1013.7 |
| 20260504081506 | 68 | 244 | 0.0 | 3.5 | 0.00 | 0.00 | 0.00 | 70 | 1014.4 |
| 20260504044505 | 53 | 295 | 1.7 | 3.5 | 0.00 | 0.00 | 0.00 | 99 | 1015.3 |
| 20260504043005 | 53 | 314 | 1.7 | 3.5 | 0.00 | 0.00 | 0.00 | 99 | 1015.5 |
| 20260504041505 | 53 | 291 | 0.9 | 1.7 | 0.00 | 0.00 | 0.00 | 99 | 1015.4 |
| 20260504034505 | 53 | 345 | 0.0 | 1.7 | 0.00 | 0.00 | 0.00 | 99 | 1015.7 |
| 20260504033006 | 52 | 287 | 0.9 | 3.5 | 0.00 | 0.00 | 0.00 | 99 | 1015.7 |
| 20260504031505 | 53 | 344 | 1.7 | 3.5 | 0.00 | 0.00 | 0.00 | 99 | 1015.7 |
| 20260504030005 | 52 | 294 | 0.9 | 1.7 | 0.00 | 0.00 | 0.00 | 99 | 1016.0 |
| 20260504020005 | 54 | 320 | 0.9 | 1.7 | 0.00 | 0.00 | 0.00 | 99 | 1016.1 |
| 20260504014506 | 54 | 301 | 1.7 | 3.5 | 0.00 | 0.00 | 0.00 | 99 | 1016.2 |
| 20260504011505 | 54 | 325 | 0.9 | 3.5 | 0.00 | 0.00 | 0.00 | 99 | 1016.2 |
| 20260504010005 | 54 | 295 | 1.7 | 3.5 | 0.00 | 0.00 | 0.00 | 99 | 1016.4 |
| 20260504004505 | 54 | 281 | 0.9 | 1.7 | 0.00 | 0.00 | 0.00 | 99 | 1016.6 |
| 20260504003005 | 55 | 331 | 0.9 | 3.5 | 0.00 | 0.00 | 0.00 | 99 | 1016.6 |
| 20260504001505 | 55 | 293 | 0.0 | 3.5 | 0.00 | 0.00 | 0.00 | 99 | 1016.9 |
| 20260504000005 | 55 | 340 | 0.9 | 5.2 | 0.00 | 0.00 | 0.00 | 99 | 1016.8 |
| 20260503234505 | 56 | 326 | 1.7 | 1.7 | 0.00 | 0.00 | 0.00 | 99 | 1017.0 |
| 20260503233005 | 56 | 270 | 0.0 | 1.7 | 0.00 | 0.00 | 0.00 | 99 | 1017.4 |
| 20260503231506 | 56 | 0 | 0.0 | 0.0 | 0.00 | 0.00 | 0.00 | 99 | 1017.4 |
| 20260503230006 | 56 | 273 | 0.0 | 1.7 | 0.00 | 0.00 | 0.00 | 99 | 1017.6 |
| 20260503224504 | 56 | 318 | 0.0 | 1.7 | 0.00 | 0.00 | 0.00 | 98 | 1017.9 |
| 20260503223005 | 56 | 310 | 0.0 | 1.7 | 0.00 | 0.00 | 0.00 | 98 | 1017.8 |
| 20260503221505 | 56 | 10 | 1.7 | 3.5 | 0.00 | 0.00 | 0.00 | 97 | 1018.1 |
| 20260503220007 | 56 | 68 | 1.7 | 1.7 | 0.00 | 0.00 | 0.00 | 97 | 1017.9 |